Showing default

HULIANWANG DIGUI-179, 100204

Orbit data source: Space-Track

HULIANWANG DIGUI-179, 100204 is a payload satellite owned by Zhongguo Xingwang (CN) in LEO that was launched on Tue, 04 Aug 2026 UTC launched from the Wenchang Satellite Launch Center (WSC). Payload-class satellites include a variety of spacecraft equipped with specific instruments for various scientific and technological missions. These include communications satellites like Starlink; space stations such as the ISS; scientific satellites like the Hubble; Earth observation satellites from companies like Planet Labs, Umbra, and HawkEye 360; GPS; miniature CubeSats for education and research; and military/defense satellites.

Loading next visibility...
Identifier
100204, 2026-176B
Orbit
LEO
Country
Flag of CNCN / PRC
Related business
Manufacturer
CAST?
Mission
Operational spacecraft
Bus & Motor
XINGWANG C, Unknown motor
Mass
~700 kg wet, ~700 kg dry
Launch date (UTC)
2026-08-04 (2 months ago)
Launch vehicle
Unknown
Launch site
Wenchang Satellite Launch Center (WSC)
Object type
Payload
Rocket body
Debris
Shape & HBR
BOX + 2 PAN, 14.5 m
Radar Cross Section
Large (>1 m²)

Expand to show TLE details & history
Last TLE update: 20 hours ago

TLE from 20 hours ago
0 HULIANWANG DIGUI-179
1 A0204U 26176B   26263.26047850 -.00000081  00000-0  91803-4 0  9994
2 A0204  49.9854 225.0091 0000345  19.9274 340.1612 13.29328109  6269
Epoch: 2026-09-20T06:15Z
TLE epoch observation values (Epoch: 2026-09-20T06:15:05.342Z)
Latitude
0.00004°
Longitude
132.07966°
Altitude
1,149.559 km
Speed
7.279 km/s
True Right ascension
15h 00m 02s
True Declination
0° 00' 00"
Sunlit
Object was in daylight at epoch
Visualization orbit readout
Latitude
Unknown
Longitude
Unknown
Altitude
Unknown
Speed
Unknown
Apparent Right ascension
Unknown
Apparent Declination
Unknown
Sunlit
N/A
Visualization observer readout
Local Sidereal Time
19:11:11
Azimuth
Unknown
Elevation
Unknown
Doppler factor
Unknown
Orbital elements
Apogee altitude
1,150.266 km
Perigee altitude
1,149.746 km
Semi-major axis
7,528.143 km
Eccentricity
0.00003
Inclination
49.9854°
RAAN
225.0091°
Arg. of periapsis
19.9274°
True anomaly
340.15986°
Mean anomaly
340.1612°
Eccentric anomaly
340.16053°
Mean motion
3.32285 °/min
Orbital period
108.34 mins
BSTAR
0.000091803
Loading maneuver chart data...
Computing Atmospheric mass density...
Loading historical data...
Loading historical data...
Loading historical data...
Loading historical data...
Loading historical data...
Loading historical data...
Loading historical data...

Documentation

Showing up to 5 results
|